| time (UTC) | temp F | wind direction | speed MPH | gust MPH | rain 1hr in | rain 24hr in | rain mn in | humidity % | barometer mb |
| 20260505225521 | 86 | 348 | 4.0 | 10.0 | 0.00 | 0.00 | 0.00 | 46 | 1004.1 |
| 20260505225022 | 87 | 66 | 5.0 | 13.0 | 0.00 | 0.00 | 0.00 | 46 | 1004.2 |
| 20260505224539 | 88 | 331 | 6.0 | 13.0 | 0.00 | 0.00 | 0.00 | 45 | 1004.1 |
| 20260505224021 | 89 | 43 | 1.0 | 4.0 | 0.00 | 0.00 | 0.00 | 50 | 1004.1 |
| 20260505223528 | 90 | 0 | 0.0 | 3.0 | 0.00 | 0.00 | 0.00 | 51 | 1003.9 |
| 20260505223040 | 89 | 0 | 1.0 | 3.0 | 0.00 | 0.00 | 0.00 | 50 | 1003.6 |
| 20260505222522 | 90 | 0 | 1.0 | 2.0 | 0.00 | 0.00 | 0.00 | 51 | 1003.5 |
| 20260505222022 | 90 | 161 | 0.0 | 4.0 | 0.00 | 0.00 | 0.00 | 52 | 1003.6 |
| 20260505221532 | 90 | 163 | 0.0 | 4.0 | 0.00 | 0.00 | 0.00 | 51 | 1003.4 |
| 20260505221027 | 90 | 207 | 1.0 | 4.0 | 0.00 | 0.00 | 0.00 | 51 | 1003.4 |
| 20260505220519 | 90 | 325 | 1.0 | 4.0 | 0.00 | 0.00 | 0.00 | 51 | 1003.6 |
| 20260505220036 | 90 | 302 | 0.0 | 3.0 | 0.00 | 0.00 | 0.00 | 51 | 1003.7 |
| 20260505215522 | 90 | 293 | 0.0 | 2.0 | 0.00 | 0.00 | 0.00 | 50 | 1003.8 |
| 20260505215021 | 90 | 0 | 0.0 | 2.0 | 0.00 | 0.00 | 0.00 | 51 | 1003.8 |
| 20260505214559 | 90 | 227 | 1.0 | 3.0 | 0.00 | 0.00 | 0.00 | 51 | 1003.9 |
| 20260505214022 | 90 | 244 | 1.0 | 4.0 | 0.00 | 0.00 | 0.00 | 50 | 1003.8 |
| 20260505213521 | 91 | 247 | 1.0 | 10.0 | 0.00 | 0.00 | 0.00 | 50 | 1003.8 |
| 20260505213042 | 91 | 135 | 3.0 | 10.0 | 0.00 | 0.00 | 0.00 | 50 | 1004.0 |
| 20260505212524 | 91 | 163 | 0.0 | 6.0 | 0.00 | 0.00 | 0.00 | 49 | 1004.0 |
| 20260505212021 | 90 | 214 | 1.0 | 6.0 | 0.00 | 0.00 | 0.00 | 52 | 1004.1 |
| 20260505211535 | 90 | 88 | 1.0 | 5.0 | 0.00 | 0.00 | 0.00 | 50 | 1004.0 |
| 20260505211024 | 91 | 165 | 1.0 | 5.0 | 0.00 | 0.00 | 0.00 | 51 | 1004.2 |
| 20260505210520 | 90 | 0 | 0.0 | 5.0 | 0.00 | 0.00 | 0.00 | 52 | 1004.2 |
| 20260505210040 | 91 | 211 | 1.0 | 5.0 | 0.00 | 0.00 | 0.00 | 53 | 1004.2 |
| 20260505205522 | 91 | 225 | 1.0 | 4.0 | 0.00 | 0.00 | 0.00 | 53 | 1004.2 |
| 20260505205022 | 90 | 202 | 1.0 | 4.0 | 0.00 | 0.00 | 0.00 | 54 | 1004.3 |
| 20260505204548 | 89 | 138 | 1.0 | 4.0 | 0.00 | 0.00 | 0.00 | 56 | 1004.3 |
| 20260505204022 | 91 | 210 | 1.0 | 5.0 | 0.00 | 0.00 | 0.00 | 54 | 1004.4 |
| 20260505203521 | 90 | 339 | 1.0 | 5.0 | 0.00 | 0.00 | 0.00 | 54 | 1004.6 |
| 20260505203046 | 89 | 334 | 1.0 | 9.0 | 0.00 | 0.00 | 0.00 | 57 | 1004.7 |
| 20260505202522 | 90 | 136 | 2.0 | 9.0 | 0.00 | 0.00 | 0.00 | 55 | 1004.6 |
| 20260505202022 | 89 | 179 | 1.0 | 7.0 | 0.00 | 0.00 | 0.00 | 57 | 1004.6 |
| 20260505201539 | 89 | 186 | 1.0 | 8.0 | 0.00 | 0.00 | 0.00 | 54 | 1004.7 |
| 20260505201021 | 90 | 216 | 1.0 | 8.0 | 0.00 | 0.00 | 0.00 | 53 | 1004.7 |
| 20260505200522 | 90 | 229 | 2.0 | 7.0 | 0.00 | 0.00 | 0.00 | 54 | 1004.5 |
| 20260505200046 | 89 | 199 | 1.0 | 4.0 | 0.00 | 0.00 | 0.00 | 55 | 1004.8 |
| 20260505195522 | 90 | 311 | 1.0 | 5.0 | 0.00 | 0.00 | 0.00 | 56 | 1004.8 |
| 20260505195022 | 89 | 242 | 1.0 | 5.0 | 0.00 | 0.00 | 0.00 | 57 | 1004.8 |
| 20260505194544 | 88 | 183 | 1.0 | 4.0 | 0.00 | 0.00 | 0.00 | 57 | 1004.8 |
| 20260505194023 | 88 | 265 | 1.0 | 5.0 | 0.00 | 0.00 | 0.00 | 57 | 1004.8 |
| 20260505193523 | 89 | 158 | 2.0 | 5.0 | 0.00 | 0.00 | 0.00 | 56 | 1004.9 |
| 20260505193042 | 88 | 225 | 1.0 | 4.0 | 0.00 | 0.00 | 0.00 | 60 | 1004.7 |
| 20260505192523 | 88 | 360 | 1.0 | 5.0 | 0.00 | 0.00 | 0.00 | 59 | 1004.8 |
| 20260505192023 | 87 | 148 | 1.0 | 5.0 | 0.00 | 0.00 | 0.00 | 59 | 1004.9 |
| 20260505191538 | 87 | 261 | 2.0 | 6.0 | 0.00 | 0.00 | 0.00 | 58 | 1004.9 |
| 20260505191023 | 87 | 182 | 1.0 | 6.0 | 0.00 | 0.00 | 0.00 | 61 | 1004.8 |
| 20260505190523 | 87 | 196 | 2.0 | 4.0 | 0.00 | 0.00 | 0.00 | 61 | 1004.9 |
| 20260505190039 | 86 | 203 | 1.0 | 7.0 | 0.00 | 0.00 | 0.00 | 61 | 1004.9 |
| 20260505185522 | 85 | 28 | 2.0 | 7.0 | 0.00 | 0.00 | 0.00 | 62 | 1004.9 |
| 20260505185021 | 85 | 229 | 1.0 | 7.0 | 0.00 | 0.00 | 0.00 | 63 | 1005.0 |
| 20260505184538 | 84 | 216 | 2.0 | 7.0 | 0.00 | 0.00 | 0.00 | 63 | 1004.9 |
| 20260505184021 | 84 | 227 | 1.0 | 6.0 | 0.00 | 0.00 | 0.00 | 64 | 1005.1 |
| 20260505183521 | 84 | 236 | 1.0 | 6.0 | 0.00 | 0.00 | 0.00 | 64 | 1005.0 |
| 20260505183038 | 84 | 169 | 1.0 | 9.0 | 0.00 | 0.00 | 0.00 | 65 | 1005.0 |
| 20260505182522 | 84 | 170 | 2.0 | 9.0 | 0.00 | 0.00 | 0.00 | 64 | 1005.0 |
| 20260505182021 | 84 | 211 | 1.0 | 5.0 | 0.00 | 0.00 | 0.00 | 64 | 1005.0 |
| 20260505181537 | 84 | 195 | 1.0 | 7.0 | 0.00 | 0.00 | 0.00 | 64 | 1005.2 |
| 20260505181021 | 84 | 188 | 2.0 | 9.0 | 0.00 | 0.00 | 0.00 | 63 | 1005.2 |
| 20260505180522 | 84 | 360 | 2.0 | 9.0 | 0.00 | 0.00 | 0.00 | 64 | 1005.1 |
| 20260505175523 | 84 | 191 | 3.0 | 7.0 | 0.00 | 0.00 | 0.00 | 64 | 1005.0 |
| 20260505175025 | 84 | 165 | 1.0 | 6.0 | 0.00 | 0.00 | 0.00 | 63 | 1005.0 |
| 20260505174556 | 84 | 175 | 2.0 | 7.0 | 0.00 | 0.00 | 0.00 | 64 | 1005.0 |
| 20260505174022 | 83 | 209 | 2.0 | 7.0 | 0.00 | 0.00 | 0.00 | 64 | 1005.2 |
| 20260505173524 | 83 | 134 | 1.0 | 7.0 | 0.00 | 0.00 | 0.00 | 65 | 1005.0 |
| 20260505173044 | 83 | 159 | 3.0 | 7.0 | 0.00 | 0.00 | 0.00 | 65 | 1005.0 |
| 20260505172521 | 82 | 215 | 2.0 | 7.0 | 0.00 | 0.00 | 0.00 | 65 | 1005.2 |
| 20260505172021 | 82 | 263 | 1.0 | 7.0 | 0.00 | 0.00 | 0.00 | 66 | 1005.2 |
| 20260505171537 | 82 | 209 | 2.0 | 7.0 | 0.00 | 0.00 | 0.00 | 66 | 1005.4 |
| 20260505171021 | 81 | 148 | 1.0 | 8.0 | 0.00 | 0.00 | 0.00 | 66 | 1005.2 |
| 20260505170521 | 82 | 208 | 3.0 | 8.0 | 0.00 | 0.00 | 0.00 | 66 | 1005.5 |
| 20260505170037 | 82 | 200 | 2.0 | 9.0 | 0.00 | 0.00 | 0.00 | 66 | 1005.2 |
| 20260505165522 | 82 | 263 | 2.0 | 9.0 | 0.00 | 0.00 | 0.00 | 66 | 1005.4 |
| 20260505165024 | 82 | 145 | 2.0 | 5.0 | 0.00 | 0.00 | 0.00 | 67 | 1005.4 |
| 20260505164535 | 82 | 241 | 1.0 | 5.0 | 0.00 | 0.00 | 0.00 | 67 | 1005.3 |
| 20260505164021 | 81 | 123 | 1.0 | 7.0 | 0.00 | 0.00 | 0.00 | 67 | 1005.4 |
| 20260505163521 | 81 | 215 | 2.0 | 7.0 | 0.00 | 0.00 | 0.00 | 67 | 1005.3 |
| 20260505163039 | 80 | 242 | 2.0 | 7.0 | 0.00 | 0.00 | 0.00 | 68 | 1005.2 |
| 20260505162521 | 80 | 240 | 2.0 | 7.0 | 0.00 | 0.00 | 0.00 | 69 | 1005.2 |
| 20260505162021 | 80 | 304 | 2.0 | 7.0 | 0.00 | 0.00 | 0.00 | 69 | 1005.1 |
| 20260505161539 | 80 | 187 | 2.0 | 9.0 | 0.00 | 0.00 | 0.00 | 69 | 1005.0 |
| 20260505161024 | 80 | 196 | 3.0 | 9.0 | 0.00 | 0.00 | 0.00 | 68 | 1005.0 |
| 20260505160523 | 80 | 318 | 2.0 | 9.0 | 0.00 | 0.00 | 0.00 | 69 | 1004.9 |
| 20260505153036 | 78 | 135 | 3.0 | 9.0 | 0.00 | 0.00 | 0.00 | 71 | 1004.7 |
| 20260505152521 | 78 | 197 | 3.0 | 9.0 | 0.00 | 0.00 | 0.00 | 72 | 1004.7 |
| 20260505152020 | 77 | 114 | 3.0 | 10.0 | 0.00 | 0.00 | 0.00 | 73 | 1004.9 |
| 20260505151535 | 77 | 185 | 3.0 | 10.0 | 0.00 | 0.00 | 0.00 | 73 | 1005.0 |
| 20260505151021 | 77 | 219 | 4.0 | 10.0 | 0.00 | 0.00 | 0.00 | 73 | 1005.1 |
| 20260505150521 | 77 | 154 | 3.0 | 8.0 | 0.00 | 0.00 | 0.00 | 73 | 1004.9 |
| 20260505140521 | 74 | 212 | 2.0 | 7.0 | 0.00 | 0.00 | 0.00 | 78 | 1005.0 |
| 20260505125018 | 72 | 186 | 3.0 | 8.0 | 0.00 | 0.00 | 0.00 | 81 | 1004.6 |
| 20260505124538 | 72 | 196 | 1.0 | 7.0 | 0.00 | 0.00 | 0.00 | 81 | 1004.5 |
| 20260505124018 | 72 | 77 | 2.0 | 9.0 | 0.00 | 0.00 | 0.00 | 81 | 1004.6 |
| 20260505123518 | 72 | 173 | 2.0 | 9.0 | 0.00 | 0.00 | 0.00 | 81 | 1004.5 |
| 20260505123037 | 72 | 155 | 2.0 | 9.0 | 0.00 | 0.00 | 0.00 | 81 | 1004.3 |
| 20260505122518 | 72 | 186 | 3.0 | 9.0 | 0.00 | 0.00 | 0.00 | 81 | 1004.1 |
| 20260505122022 | 72 | 232 | 3.0 | 9.0 | 0.00 | 0.00 | 0.00 | 81 | 1004.1 |
| 20260505121540 | 72 | 166 | 3.0 | 7.0 | 0.00 | 0.00 | 0.00 | 80 | 1004.2 |
| 20260505121021 | 72 | 176 | 2.0 | 9.0 | 0.00 | 0.00 | 0.00 | 80 | 1004.1 |
| 20260505120522 | 72 | 151 | 3.0 | 11.0 | 0.00 | 0.00 | 0.00 | 80 | 1004.1 |
| 20260505120041 | 72 | 234 | 3.0 | 11.0 | 0.00 | 0.00 | 0.00 | 81 | 1004.1 |
| 20260505115521 | 72 | 206 | 2.0 | 12.0 | 0.00 | 0.00 | 0.00 | 80 | 1004.2 |
| 20260505115018 | 72 | 189 | 3.0 | 12.0 | 0.00 | 0.00 | 0.00 | 81 | 1004.1 |
| 20260505114537 | 71 | 155 | 3.0 | 8.0 | 0.00 | 0.00 | 0.00 | 81 | 1004.0 |
| 20260505114021 | 72 | 208 | 2.0 | 11.0 | 0.00 | 0.00 | 0.00 | 80 | 1003.9 |
| 20260505113524 | 72 | 161 | 3.0 | 11.0 | 0.00 | 0.00 | 0.00 | 80 | 1003.9 |
| 20260505113036 | 72 | 156 | 3.0 | 10.0 | 0.00 | 0.00 | 0.00 | 80 | 1003.9 |
| 20260505112518 | 72 | 207 | 2.0 | 10.0 | 0.00 | 0.00 | 0.00 | 80 | 1003.7 |
| 20260505112018 | 72 | 205 | 3.0 | 14.0 | 0.00 | 0.00 | 0.00 | 80 | 1003.8 |
| 20260505111539 | 71 | 230 | 4.0 | 14.0 | 0.00 | 0.00 | 0.00 | 81 | 1003.9 |
| 20260505111018 | 71 | 200 | 3.0 | 7.0 | 0.00 | 0.00 | 0.00 | 81 | 1003.8 |
| 20260505110519 | 71 | 205 | 3.0 | 7.0 | 0.00 | 0.00 | 0.00 | 82 | 1004.0 |
| 20260505102025 | 71 | 195 | 3.0 | 9.0 | 0.00 | 0.00 | 0.00 | 80 | 1003.9 |
| 20260505101535 | 71 | 143 | 2.0 | 8.0 | 0.00 | 0.00 | 0.00 | 81 | 1004.0 |
| 20260505101021 | 71 | 194 | 3.0 | 7.0 | 0.00 | 0.00 | 0.00 | 80 | 1003.9 |
| 20260505100521 | 71 | 163 | 2.0 | 7.0 | 0.00 | 0.00 | 0.00 | 80 | 1003.9 |
| 20260505100035 | 71 | 161 | 3.0 | 9.0 | 0.00 | 0.00 | 0.00 | 80 | 1003.9 |
| 20260505095520 | 71 | 201 | 3.0 | 11.0 | 0.00 | 0.00 | 0.00 | 81 | 1003.9 |
| 20260505095024 | 71 | 240 | 4.0 | 11.0 | 0.00 | 0.00 | 0.00 | 80 | 1004.1 |
| 20260505094537 | 71 | 194 | 3.0 | 10.0 | 0.00 | 0.00 | 0.00 | 81 | 1004.1 |
| 20260505094020 | 71 | 84 | 2.0 | 10.0 | 0.00 | 0.00 | 0.00 | 81 | 1004.3 |
| 20260505093522 | 71 | 188 | 4.0 | 11.0 | 0.00 | 0.00 | 0.00 | 81 | 1004.2 |
| 20260505093040 | 71 | 168 | 3.0 | 11.0 | 0.00 | 0.00 | 0.00 | 81 | 1004.2 |
| 20260505092521 | 71 | 151 | 4.0 | 10.0 | 0.00 | 0.00 | 0.00 | 81 | 1004.2 |
| 20260505092021 | 71 | 163 | 2.0 | 10.0 | 0.00 | 0.00 | 0.00 | 81 | 1004.4 |
| 20260505091548 | 71 | 202 | 1.0 | 10.0 | 0.00 | 0.00 | 0.00 | 81 | 1004.4 |
| 20260505091019 | 71 | 205 | 2.0 | 8.0 | 0.00 | 0.00 | 0.00 | 81 | 1004.5 |
| 20260505090521 | 71 | 178 | 2.0 | 8.0 | 0.00 | 0.00 | 0.00 | 82 | 1004.4 |
| 20260505090034 | 71 | 191 | 3.0 | 8.0 | 0.00 | 0.00 | 0.00 | 82 | 1004.4 |
| 20260505085521 | 71 | 169 | 3.0 | 12.0 | 0.00 | 0.00 | 0.00 | 81 | 1004.3 |
| 20260505085025 | 71 | 132 | 2.0 | 12.0 | 0.00 | 0.00 | 0.00 | 81 | 1004.3 |
| 20260505084535 | 71 | 312 | 2.0 | 11.0 | 0.00 | 0.00 | 0.00 | 81 | 1004.3 |
| 20260505084023 | 71 | 202 | 4.0 | 11.0 | 0.00 | 0.00 | 0.00 | 81 | 1004.3 |
| 20260505083520 | 71 | 172 | 3.0 | 8.0 | 0.00 | 0.00 | 0.00 | 81 | 1004.4 |
| 20260505083039 | 71 | 36 | 2.0 | 8.0 | 0.00 | 0.00 | 0.00 | 81 | 1004.4 |
| 20260505082520 | 71 | 205 | 3.0 | 9.0 | 0.00 | 0.00 | 0.00 | 80 | 1004.3 |
| 20260505082022 | 71 | 198 | 3.0 | 12.0 | 0.00 | 0.00 | 0.00 | 80 | 1004.3 |
| 20260505081539 | 71 | 195 | 4.0 | 12.0 | 0.00 | 0.00 | 0.00 | 80 | 1004.4 |
| 20260505081020 | 71 | 117 | 3.0 | 10.0 | 0.00 | 0.00 | 0.00 | 80 | 1004.5 |
| 20260505080517 | 71 | 164 | 2.0 | 10.0 | 0.00 | 0.00 | 0.00 | 80 | 1004.5 |
| 20260505080037 | 71 | 264 | 3.0 | 10.0 | 0.00 | 0.00 | 0.00 | 80 | 1004.5 |
| 20260505075520 | 71 | 0 | 3.0 | 9.0 | 0.00 | 0.00 | 0.00 | 79 | 1004.6 |
| 20260505075024 | 71 | 184 | 2.0 | 7.0 | 0.00 | 0.00 | 0.00 | 79 | 1004.6 |
| 20260505074537 | 71 | 215 | 2.0 | 7.0 | 0.00 | 0.00 | 0.00 | 79 | 1004.7 |
| 20260505074021 | 71 | 190 | 2.0 | 8.0 | 0.00 | 0.00 | 0.00 | 79 | 1004.8 |
| 20260505073521 | 72 | 188 | 3.0 | 8.0 | 0.00 | 0.00 | 0.00 | 78 | 1004.9 |
| 20260505073034 | 72 | 182 | 2.0 | 12.0 | 0.00 | 0.00 | 0.00 | 78 | 1005.0 |
| 20260505072524 | 72 | 197 | 2.0 | 12.0 | 0.00 | 0.00 | 0.00 | 78 | 1005.1 |
| 20260505072020 | 72 | 243 | 2.0 | 12.0 | 0.00 | 0.00 | 0.00 | 78 | 1005.1 |
| 20260505071551 | 72 | 161 | 3.0 | 8.0 | 0.00 | 0.00 | 0.00 | 78 | 1005.2 |
| 20260505071020 | 72 | 234 | 2.0 | 9.0 | 0.00 | 0.00 | 0.00 | 77 | 1005.2 |
| 20260505070523 | 72 | 170 | 3.0 | 9.0 | 0.00 | 0.00 | 0.00 | 77 | 1005.2 |
| 20260505070042 | 72 | 140 | 3.0 | 9.0 | 0.00 | 0.00 | 0.00 | 77 | 1005.3 |
| 20260505065522 | 72 | 172 | 2.0 | 7.0 | 0.00 | 0.00 | 0.00 | 77 | 1005.4 |
| 20260505065021 | 72 | 200 | 2.0 | 10.0 | 0.00 | 0.00 | 0.00 | 77 | 1005.5 |
| 20260505064536 | 72 | 197 | 2.0 | 10.0 | 0.00 | 0.00 | 0.00 | 76 | 1005.6 |
| 20260505064021 | 72 | 192 | 1.0 | 7.0 | 0.00 | 0.00 | 0.00 | 76 | 1005.7 |
| 20260505063521 | 72 | 178 | 2.0 | 7.0 | 0.00 | 0.00 | 0.00 | 76 | 1005.7 |
| 20260505063048 | 72 | 182 | 3.0 | 10.0 | 0.00 | 0.00 | 0.00 | 75 | 1005.7 |
| 20260505062526 | 72 | 194 | 3.0 | 10.0 | 0.00 | 0.00 | 0.00 | 75 | 1005.8 |
| 20260505062021 | 72 | 203 | 2.0 | 6.0 | 0.00 | 0.00 | 0.00 | 75 | 1005.7 |
| 20260505061604 | 72 | 201 | 1.0 | 8.0 | 0.00 | 0.00 | 0.00 | 75 | 1005.7 |
| 20260505061020 | 72 | 199 | 3.0 | 11.0 | 0.00 | 0.00 | 0.00 | 74 | 1005.8 |
| 20260505060524 | 73 | 172 | 2.0 | 12.0 | 0.00 | 0.00 | 0.00 | 74 | 1005.7 |
| 20260505060040 | 73 | 81 | 3.0 | 12.0 | 0.00 | 0.00 | 0.00 | 74 | 1005.7 |
| 20260505055525 | 73 | 211 | 2.0 | 10.0 | 0.00 | 0.00 | 0.00 | 73 | 1005.7 |
| 20260505055023 | 73 | 141 | 3.0 | 10.0 | 0.00 | 0.00 | 0.00 | 73 | 1005.8 |
| 20260505054540 | 73 | 120 | 3.0 | 9.0 | 0.00 | 0.00 | 0.00 | 73 | 1005.9 |
| 20260505054023 | 73 | 167 | 2.0 | 13.0 | 0.00 | 0.00 | 0.00 | 73 | 1005.9 |
| 20260505053521 | 73 | 109 | 3.0 | 13.0 | 0.00 | 0.00 | 0.00 | 73 | 1005.9 |
| 20260505053041 | 73 | 117 | 2.0 | 9.0 | 0.00 | 0.00 | 0.00 | 72 | 1006.0 |
| 20260505052523 | 73 | 162 | 2.0 | 16.0 | 0.00 | 0.00 | 0.00 | 72 | 1006.0 |
| 20260505052023 | 73 | 186 | 2.0 | 16.0 | 0.00 | 0.00 | 0.00 | 72 | 1006.1 |
| 20260505051601 | 73 | 142 | 3.0 | 8.0 | 0.00 | 0.00 | 0.00 | 71 | 1006.1 |
| 20260505051023 | 73 | 196 | 2.0 | 11.0 | 0.00 | 0.00 | 0.00 | 71 | 1006.1 |
| 20260505050523 | 73 | 157 | 3.0 | 11.0 | 0.00 | 0.00 | 0.00 | 71 | 1006.1 |
| 20260505041540 | 74 | 264 | 3.0 | 8.0 | 0.00 | 0.00 | 0.00 | 69 | 1006.2 |
| 20260505041022 | 74 | 183 | 3.0 | 11.0 | 0.00 | 0.00 | 0.00 | 69 | 1006.4 |
| 20260505040522 | 74 | 237 | 3.0 | 11.0 | 0.00 | 0.00 | 0.00 | 69 | 1006.4 |
| 20260505040036 | 74 | 184 | 2.0 | 9.0 | 0.00 | 0.00 | 0.00 | 69 | 1006.5 |
| 20260505035522 | 74 | 220 | 2.0 | 9.0 | 0.00 | 0.00 | 0.00 | 69 | 1006.4 |
| 20260505035021 | 74 | 123 | 2.0 | 7.0 | 0.00 | 0.00 | 0.00 | 69 | 1006.3 |
| 20260505034538 | 74 | 190 | 2.0 | 7.0 | 0.00 | 0.00 | 0.00 | 68 | 1006.3 |
| 20260505034023 | 74 | 194 | 2.0 | 8.0 | 0.00 | 0.00 | 0.00 | 68 | 1006.2 |
| 20260505033526 | 74 | 169 | 3.0 | 10.0 | 0.00 | 0.00 | 0.00 | 68 | 1006.3 |
| 20260505033038 | 74 | 181 | 2.0 | 10.0 | 0.00 | 0.00 | 0.00 | 68 | 1006.4 |
| 20260505032523 | 75 | 169 | 2.0 | 9.0 | 0.00 | 0.00 | 0.00 | 68 | 1006.5 |
| 20260505032022 | 75 | 175 | 3.0 | 14.0 | 0.00 | 0.00 | 0.00 | 67 | 1006.4 |
| 20260505031540 | 75 | 207 | 3.0 | 14.0 | 0.00 | 0.00 | 0.00 | 67 | 1006.4 |
| 20260505031022 | 75 | 205 | 3.0 | 10.0 | 0.00 | 0.00 | 0.00 | 67 | 1006.4 |
| 20260505030522 | 75 | 207 | 2.0 | 10.0 | 0.00 | 0.00 | 0.00 | 67 | 1006.4 |
| 20260505030038 | 75 | 161 | 3.0 | 8.0 | 0.00 | 0.00 | 0.00 | 67 | 1006.4 |
| 20260505025523 | 75 | 161 | 2.0 | 8.0 | 0.00 | 0.00 | 0.00 | 67 | 1006.5 |
| 20260505025017 | 75 | 189 | 2.0 | 13.0 | 0.00 | 0.00 | 0.00 | 67 | 1006.5 |
| 20260505024539 | 75 | 243 | 2.0 | 13.0 | 0.00 | 0.00 | 0.00 | 67 | 1006.4 |
| 20260505024018 | 75 | 187 | 1.0 | 9.0 | 0.00 | 0.00 | 0.00 | 66 | 1006.5 |
| 20260505023517 | 75 | 134 | 3.0 | 14.0 | 0.00 | 0.00 | 0.00 | 66 | 1006.4 |
| 20260505023036 | 75 | 169 | 2.0 | 14.0 | 0.00 | 0.00 | 0.00 | 65 | 1006.4 |
| 20260505022517 | 75 | 162 | 2.0 | 12.0 | 0.00 | 0.00 | 0.00 | 66 | 1006.4 |
| 20260505022017 | 75 | 215 | 3.0 | 12.0 | 0.00 | 0.00 | 0.00 | 65 | 1006.4 |
| 20260505021539 | 75 | 189 | 3.0 | 10.0 | 0.00 | 0.00 | 0.00 | 65 | 1006.3 |
| 20260505021017 | 75 | 196 | 3.0 | 10.0 | 0.00 | 0.00 | 0.00 | 65 | 1006.2 |
| 20260505020520 | 75 | 170 | 3.0 | 10.0 | 0.00 | 0.00 | 0.00 | 65 | 1006.1 |
| 20260505020038 | 76 | 144 | 2.0 | 12.0 | 0.00 | 0.00 | 0.00 | 65 | 1006.2 |
| 20260505015521 | 76 | 223 | 3.0 | 12.0 | 0.00 | 0.00 | 0.00 | 65 | 1006.3 |
| 20260505015018 | 76 | 205 | 2.0 | 12.0 | 0.00 | 0.00 | 0.00 | 65 | 1006.3 |
| 20260505014538 | 76 | 184 | 3.0 | 12.0 | 0.00 | 0.00 | 0.00 | 64 | 1006.3 |
| 20260505014021 | 76 | 186 | 3.0 | 11.0 | 0.00 | 0.00 | 0.00 | 64 | 1006.3 |
| 20260505013520 | 76 | 229 | 2.0 | 12.0 | 0.00 | 0.00 | 0.00 | 63 | 1006.4 |
| 20260505013039 | 76 | 191 | 4.0 | 12.0 | 0.00 | 0.00 | 0.00 | 63 | 1006.2 |
| 20260505012520 | 76 | 166 | 3.0 | 13.0 | 0.00 | 0.00 | 0.00 | 63 | 1006.3 |
| 20260505012017 | 76 | 234 | 4.0 | 13.0 | 0.00 | 0.00 | 0.00 | 63 | 1006.2 |
| 20260505011541 | 76 | 138 | 4.0 | 16.0 | 0.00 | 0.00 | 0.00 | 63 | 1006.2 |
| 20260505011017 | 77 | 273 | 4.0 | 16.0 | 0.00 | 0.00 | 0.00 | 63 | 1006.1 |
| 20260505010517 | 77 | 178 | 2.0 | 12.0 | 0.00 | 0.00 | 0.00 | 62 | 1006.2 |
| 20260505010037 | 77 | 184 | 4.0 | 12.0 | 0.00 | 0.00 | 0.00 | 62 | 1006.1 |
| 20260505005518 | 77 | 198 | 2.0 | 13.0 | 0.00 | 0.00 | 0.00 | 62 | 1006.1 |
| 20260505005017 | 77 | 192 | 3.0 | 13.0 | 0.00 | 0.00 | 0.00 | 61 | 1006.2 |
| 20260505004538 | 77 | 175 | 4.0 | 15.0 | 0.00 | 0.00 | 0.00 | 61 | 1006.2 |
| 20260505004020 | 77 | 157 | 3.0 | 15.0 | 0.00 | 0.00 | 0.00 | 61 | 1006.1 |
| 20260505003523 | 78 | 209 | 3.0 | 11.0 | 0.00 | 0.00 | 0.00 | 60 | 1006.1 |
| 20260505003038 | 78 | 176 | 3.0 | 12.0 | 0.00 | 0.00 | 0.00 | 59 | 1006.2 |
| 20260505002518 | 78 | 134 | 3.0 | 15.0 | 0.00 | 0.00 | 0.00 | 59 | 1006.2 |
| 20260505002017 | 78 | 158 | 5.0 | 15.0 | 0.00 | 0.00 | 0.00 | 59 | 1006.3 |
| 20260505001540 | 78 | 153 | 4.0 | 12.0 | 0.00 | 0.00 | 0.00 | 59 | 1006.3 |
| 20260505001017 | 79 | 224 | 3.0 | 13.0 | 0.00 | 0.00 | 0.00 | 58 | 1006.4 |
| 20260505000517 | 79 | 191 | 4.0 | 14.0 | 0.00 | 0.00 | 0.00 | 58 | 1006.2 |
| 20260505000044 | 79 | 202 | 3.0 | 14.0 | 0.00 | 0.00 | 0.00 | 58 | 1006.3 |
| 20260504235520 | 79 | 166 | 5.0 | 15.0 | 0.00 | 0.00 | 0.00 | 58 | 1006.4 |
| 20260504235024 | 79 | 240 | 6.0 | 15.0 | 0.00 | 0.00 | 0.00 | 58 | 1006.4 |
| 20260504234541 | 79 | 147 | 5.0 | 15.0 | 0.00 | 0.00 | 0.00 | 57 | 1006.4 |
| 20260504234023 | 79 | 130 | 5.0 | 19.0 | 0.00 | 0.00 | 0.00 | 57 | 1006.5 |
| 20260504233522 | 79 | 199 | 5.0 | 19.0 | 0.00 | 0.00 | 0.00 | 57 | 1006.5 |
| 20260504233033 | 79 | 192 | 4.0 | 16.0 | 0.00 | 0.00 | 0.00 | 57 | 1006.4 |
| 20260504232522 | 80 | 200 | 7.0 | 16.0 | 0.00 | 0.00 | 0.00 | 56 | 1006.4 |
| 20260504232021 | 80 | 141 | 4.0 | 14.0 | 0.00 | 0.00 | 0.00 | 56 | 1006.4 |
| 20260504231544 | 80 | 134 | 4.0 | 15.0 | 0.00 | 0.00 | 0.00 | 56 | 1006.6 |
| 20260504231021 | 80 | 178 | 4.0 | 16.0 | 0.00 | 0.00 | 0.00 | 55 | 1006.7 |
| 20260504230523 | 81 | 198 | 4.0 | 15.0 | 0.00 | 0.00 | 0.00 | 54 | 1006.8 |
| 20260504230050 | 82 | 267 | 5.0 | 20.0 | 0.00 | 0.00 | 0.00 | 53 | 1006.7 |